#timestamp,LO_Frequency,Hit,StdDev 
1506531615.8,286047017.3,N
1506531635.7,286047018.6,N
1506531655.5,286047017.9,N
1506531675.3,286047023.4,N
1506531695.2,286047024.1,N
1506531715.9,286047029.3,N
1506531735.7,286047029.8,N
1506531755.5,286047025.9,N
1506531775.4,286047028.2,N
1506531795.2,286047029.0,N
1506531815.0,286047029.1,N
1506531815.9,286047029.1,N
1506531835.8,286047028.6,N
1506531855.6,286047032.4,N
1506531875.4,286047034.0,N
1506531895.3,286047035.0,N
1506531915.1,286047037.5,N
1506531916.0,286047037.5,N
1506531935.8,286047032.1,N
1506531955.7,286047032.3,N
1506531975.5,286047029.6,N
1506531995.3,286047024.1,N
1506532015.2,286047024.3,N
1506532035.9,286047024.2,N
1506532055.7,286047029.6,Y
1506532075.6,286047003.3,P
1506532095.4,286047007.8,N
1506532115.2,286047011.2,N
1506532135.1,286047009.6,N
1506532136.0,286047009.6,N
1506532155.8,286047009.5,N
1506532175.6,286047009.8,N
1506532195.5,286047006.4,N
1506532215.3,286047008.9,N
1506532235.1,286047015.4,N
1506532255.9,286047018.0,Y
1506532275.7,286047003.3,P
1506532295.5,286047002.1,N
1506532315.3,286046999.0,N
1506532335.2,286046997.6,N
1506532355.0,286046995.8,N
1506532355.9,286046995.8,N
1506532375.7,286046993.4,N
1506532395.6,286046992.9,N
1506532415.4,286046989.7,N
1506532435.2,286046987.6,N
1506532455.1,286046985.4,N
1506532456.0,286046985.4,N
1506532475.8,286046984.9,N
1506532495.6,286046982.9,N
1506532515.5,286046982.4,N
1506532535.3,286046981.3,N
1506532555.1,286046979.6,N
1506532575.9,286046980.3,N
1506532595.7,286046980.3,N
1506532615.5,286046974.1,N
1506532635.3,286046974.7,N
1506532655.2,286046970.9,Y
1506532675.0,286046984.3,P
1506532675.9,286046984.3,P
1506532695.8,286046985.8,P
1506532715.6,286046984.2,Y
1506532735.4,286046999.4,P
1506532755.3,286046995.0,N
1506532775.1,286046996.4,N
1506532776.0,286046996.4,N
1506532795.8,286046993.5,N
1506532815.7,286046993.4,N
1506532835.5,286046992.6,N
1506532855.3,286046992.0,N
1506532875.1,286046990.2,N
1506532895.9,286046992.1,N
1506532915.7,286046992.5,N
1506532935.5,286046991.8,N
1506532955.4,286046990.6,N
1506532975.2,286046991.2,N
1506532995.0,286046988.5,Y
1506532995.9,286046988.5,P
1506533015.8,286046997.4,N
1506533035.6,286046998.9,N
1506533055.4,286046998.4,N
1506533075.3,286046999.4,N
1506533095.1,286047000.8,N
1506533096.0,286047000.8,N
1506533115.8,286047000.3,N
1506533135.7,286046998.5,N
1506533155.5,286047001.1,N
1506533175.3,286046999.0,N
1506533195.2,286046998.9,N
1506533215.9,286046996.6,N
1506533235.7,286046999.3,N
1506533255.5,286046999.4,N
1506533275.4,286046997.7,N
1506533295.2,286046997.8,N
1506533315.0,286046997.6,N
1506533315.9,286046997.6,N
1506533335.8,286046997.5,N
1506533355.6,286046995.3,N
1506533375.4,286046995.4,N
1506533395.3,286046996.0,N
1506533415.1,286046994.4,N
1506533416.0,286046994.4,N
1506533435.8,286046994.6,N
1506533455.7,286046992.2,N
1506533475.5,286046991.2,Y
1506533495.3,286046998.9,P
1506533515.2,286047004.0,P
1506533535.9,286047007.3,N
1506533555.7,286047009.4,N
1506533575.6,286047020.1,Y
1506533595.4,286047019.9,P
1506533615.2,286047021.7,N
1506533635.1,286047021.9,N
1506533636.0,286047021.9,N
1506533655.8,286047022.3,Y
1506533675.6,286047005.7,P
1506533695.5,286047002.1,N
1506533715.3,286047001.3,N
1506533735.1,286047000.6,N
1506533755.9,286047001.3,N
1506533775.7,286047003.8,N
1506533795.5,286047005.7,N
1506533815.4,286047006.1,N
1506533835.2,286047006.2,N
1506533855.0,286047011.8,N
1506533855.9,286047011.8,N
1506533875.7,286047011.6,N
1506533895.6,286047011.6,N
1506533915.4,286047011.0,N
1506533935.2,286047013.2,N
1506533955.1,286047011.1,N
1506533956.0,286047011.1,N
1506533975.8,286047014.3,N
1506533995.6,286047016.6,Y
1506534015.5,286047009.8,P
1506534035.3,286047010.2,P
1506534055.1,286047009.5,P
1506534075.9,286047011.6,Y
1506534095.7,286047009.1,P
1506534115.5,286047007.5,P
1506534135.4,286047004.1,P
1506534155.2,286046999.7,N
1506534175.0,286047001.8,N
1506534175.9,286047001.8,N
1506534195.8,286047004.3,N
1506534215.6,286046999.1,N
1506534235.4,286046997.8,N
1506534255.3,286046997.4,N
1506534275.1,286047000.1,N
1506534295.8,286047001.4,N
1506534315.7,286047001.6,N
1506534335.5,286047001.0,N
1506534355.3,286046996.5,N
1506534375.2,286046997.9,N
1506534395.9,286046994.4,N
1506534415.7,286046991.3,N
1506534435.5,286046989.4,N
1506534455.4,286046987.1,N
1506534475.2,286046988.0,N
1506534495.0,286046986.2,N
1506534495.9,286046986.2,N
1506534515.8,286046983.8,N
1506534535.6,286046986.8,N
1506534555.4,286046984.0,N
1506534575.3,286046982.6,N
1506534595.1,286046981.0,N
1506534615.8,286046982.0,N
1506534635.7,286046980.0,N
1506534655.5,286046980.3,N
1506534675.3,286046977.8,N
1506534695.2,286046977.9,N
1506534715.9,286046978.5,N
1506534735.7,286046976.8,N
1506534755.6,286046976.8,N
1506534775.4,286046976.0,N
1506534795.2,286046975.8,N
1506534815.0,286046978.4,N
1506534816.0,286046978.4,N
1506534835.8,286046979.0,N
1506534855.6,286046980.3,N
1506534875.4,286046979.1,N
1506534895.3,286046976.9,Y
1506534915.1,286046993.2,P
1506534935.8,286046991.6,N
1506534955.7,286046987.1,P
1506534975.5,286046991.2,N
1506534995.3,286046990.5,N
1506535015.2,286046988.9,Y
1506535035.0,286046998.1,P
1506535035.9,286046998.1,N
1506535055.7,286046998.8,N
1506535075.6,286046998.3,N
1506535095.4,286046998.7,N
1506535115.2,286046999.5,N
1506535135.1,286046999.6,N
1506535136.0,286046999.6,N
1506535155.8,286047000.6,N
1506535175.6,286046998.2,N
1506535195.5,286046999.3,N
